TimeMDT,TemperatureF,Dew PointF,Humidity,Sea Level PressureIn,VisibilityMPH,Wind Direction,Wind SpeedMPH,Gust SpeedMPH,PrecipitationIn,Events,Conditions,WindDirDegrees,DateUTC
12:53 AM,45.0,21.9,40,29.88,10.0,East,12.7,-,N/A,,Clear,80,2013-03-16 06:53:00
1:53 AM,41.0,24.1,51,29.88,10.0,NE,5.8,-,N/A,,Clear,40,2013-03-16 07:53:00
2:53 AM,37.9,25.0,60,29.87,10.0,NE,9.2,-,N/A,,Clear,50,2013-03-16 08:53:00
3:53 AM,36.0,25.0,64,29.86,10.0,ENE,9.2,-,N/A,,Clear,60,2013-03-16 09:53:00
4:53 AM,35.1,25.0,67,29.85,10.0,ENE,8.1,-,N/A,,Clear,60,2013-03-16 10:53:00
5:53 AM,35.1,24.1,64,29.87,10.0,ENE,6.9,-,N/A,,Clear,60,2013-03-16 11:53:00
6:53 AM,34.0,23.0,64,29.87,10.0,NE,8.1,-,N/A,,Clear,50,2013-03-16 12:53:00
7:53 AM,33.1,23.0,66,29.88,10.0,NNE,6.9,-,N/A,,Clear,30,2013-03-16 13:53:00
8:53 AM,36.0,24.1,62,29.89,10.0,NNE,8.1,-,N/A,,Clear,30,2013-03-16 14:53:00
9:53 AM,37.0,24.1,59,29.88,10.0,NE,9.2,-,N/A,,Clear,50,2013-03-16 15:53:00
10:53 AM,39.0,24.1,55,29.89,10.0,Variable,5.8,-,N/A,,Clear,0,2013-03-16 16:53:00
11:53 AM,44.1,25.0,47,29.86,10.0,North,4.6,-,N/A,,Clear,350,2013-03-16 17:53:00
12:53 PM,46.9,25.0,42,29.84,10.0,Variable,3.5,-,N/A,,Clear,0,2013-03-16 18:53:00
1:53 PM,52.0,24.1,34,29.79,10.0,East,6.9,-,N/A,,Clear,80,2013-03-16 19:53:00
2:53 PM,53.1,23.0,31,29.77,10.0,Variable,4.6,-,N/A,,Partly Cloudy,0,2013-03-16 20:53:00
3:53 PM,54.0,21.0,28,29.76,10.0,East,8.1,-,N/A,,Mostly Cloudy,90,2013-03-16 21:53:00
4:53 PM,53.1,21.0,29,29.76,10.0,East,3.5,-,N/A,,Scattered Clouds,90,2013-03-16 22:53:00
5:53 PM,54.0,9.0,17,29.74,10.0,NW,13.8,-,N/A,,Clear,320,2013-03-16 23:53:00
6:53 PM,50.0,9.0,19,29.76,10.0,NNW,6.9,-,N/A,,Scattered Clouds,340,2013-03-17 00:53:00
7:53 PM,43.0,9.0,25,29.79,10.0,NW,6.9,-,N/A,,Clear,320,2013-03-17 01:53:00
8:53 PM,39.0,7.0,27,29.78,10.0,NW,9.2,-,N/A,,Clear,320,2013-03-17 02:53:00
9:53 PM,41.0,9.0,27,29.78,10.0,West,9.2,-,N/A,,Clear,270,2013-03-17 03:53:00
10:53 PM,41.0,10.0,28,29.74,10.0,NW,10.4,-,N/A,,Clear,320,2013-03-17 04:53:00
11:53 PM,39.0,10.9,32,29.70,10.0,NW,6.9,-,N/A,,Clear,310,2013-03-17 05:53:00